Location: Caseificio
(44.7500°N, 11.0500°E)
Time: 00:19:38
(UTC+00:00)

Cosmos 2237 Rocket - Pass Details

Date: 26 May 2022
Orbit: 833 x 851 km, 71.0° (Epoch: 26 June)

Event Time Altitude Azimuth Distance (km) Brightness Sun altitude
Exits shadow 01:11:43 23° 252° (WSW) 1,721 3.4 -18.8°
Maximum altitude 01:14:37 38° 304° (NW) 1,267 3.1 -18.5°
Drops below altitude 10° 01:19:56 10° 13° (NNE) 2,486 5.8 -18.1°
Sets 01:22:34 0° 21° (NNE) 3,426 7.0 -17.8°
